Time,TemperatureF,DewpointF,PressureIn,WindDirection,WindDirectionDegrees,WindSpeedMPH,WindSpeedGustMPH,Humidity,HourlyPrecipIn,Conditions,Clouds,dailyrainin,SoftwareType,DateUTC
2013-08-12 00:05:00,81.3,73.0,30.04,North,-999,0.0,0.0,76,0.00,,,-99.99,WeatherLink 5.7,2013-08-12 04:05:00,
2013-08-12 00:20:00,81.2,73.3,30.04,North,-999,0.0,0.0,77,0.00,,,-99.99,WeatherLink 5.7,2013-08-12 04:20:00,
2013-08-12 00:35:00,81.0,72.7,30.04,North,-999,0.0,0.0,76,0.00,,,-99.99,WeatherLink 5.7,2013-08-12 04:35:00,
2013-08-12 00:50:00,80.8,72.9,30.04,North,-999,0.0,0.0,77,0.00,,,-99.99,WeatherLink 5.7,2013-08-12 04:50:00,
2013-08-12 01:05:00,80.5,72.6,30.04,North,-999,0.0,0.0,77,0.00,,,-99.99,WeatherLink 5.7,2013-08-12 05:05:00,
2013-08-12 01:20:00,80.2,72.3,30.03,North,-999,0.0,0.0,77,0.00,,,-99.99,WeatherLink 5.7,2013-08-12 05:20:00,
2013-08-12 01:35:00,80.0,72.9,30.03,North,-999,0.0,0.0,79,0.00,,,-99.99,WeatherLink 5.7,2013-08-12 05:35:00,
2013-08-12 01:50:00,79.8,72.7,30.03,North,-999,0.0,0.0,79,0.00,,,-99.99,WeatherLink 5.7,2013-08-12 05:50:00,
2013-08-12 02:05:00,79.5,72.4,30.03,North,-999,0.0,0.0,79,0.00,,,-99.99,WeatherLink 5.7,2013-08-12 06:05:00,
2013-08-12 02:16:00,79.1,72.4,30.02,North,-999,0.0,0.0,80,0.00,,,-99.99,WeatherLink 5.7,2013-08-12 06:16:00,
2013-08-12 02:31:00,79.0,72.7,30.01,North,-999,0.0,0.0,81,0.00,,,-99.99,WeatherLink 5.7,2013-08-12 06:31:00,
2013-08-12 02:46:00,79.0,72.7,30.01,North,-999,0.0,0.0,81,0.00,,,-99.99,WeatherLink 5.7,2013-08-12 06:46:00,
2013-08-12 03:01:00,78.7,72.0,30.00,North,-999,0.0,0.0,80,0.00,,,-99.99,WeatherLink 5.7,2013-08-12 07:01:00,
2013-08-12 03:16:00,78.5,72.5,30.00,North,-999,0.0,0.0,82,0.00,,,-99.99,WeatherLink 5.7,2013-08-12 07:16:00,
2013-08-12 03:31:00,78.5,72.5,29.99,North,-999,0.0,0.0,82,0.00,,,-99.99,WeatherLink 5.7,2013-08-12 07:31:00,
2013-08-12 03:46:00,78.2,72.3,29.99,North,-999,0.0,0.0,82,0.00,,,-99.99,WeatherLink 5.7,2013-08-12 07:46:00,
2013-08-12 04:01:00,77.9,72.0,29.99,North,-999,0.0,0.0,82,0.00,,,-99.99,WeatherLink 5.7,2013-08-12 08:01:00,
2013-08-12 04:16:00,77.7,71.8,29.99,North,-999,0.0,0.0,82,0.00,,,-99.99,WeatherLink 5.7,2013-08-12 08:16:00,
2013-08-12 04:31:00,77.6,72.0,29.99,North,-999,0.0,0.0,83,0.00,,,-99.99,WeatherLink 5.7,2013-08-12 08:31:00,
2013-08-12 04:46:00,77.6,72.0,29.98,North,-999,0.0,0.0,83,0.00,,,-99.99,WeatherLink 5.7,2013-08-12 08:46:00,
2013-08-12 05:01:00,77.4,72.2,29.99,North,-999,0.0,0.0,84,0.00,,,-99.99,WeatherLink 5.7,2013-08-12 09:01:00,
2013-08-12 05:16:00,77.2,71.6,29.99,North,-999,0.0,0.0,83,0.00,,,-99.99,WeatherLink 5.7,2013-08-12 09:16:00,
2013-08-12 05:31:00,77.0,71.8,29.99,North,-999,0.0,0.0,84,0.00,,,-99.99,WeatherLink 5.7,2013-08-12 09:31:00,
2013-08-12 05:46:00,77.0,71.8,29.99,North,-999,0.0,0.0,84,0.00,,,-99.99,WeatherLink 5.7,2013-08-12 09:46:00,
2013-08-12 06:01:00,76.8,71.6,30.00,North,-999,0.0,0.0,84,0.00,,,-99.99,WeatherLink 5.7,2013-08-12 10:01:00,
2013-08-12 06:16:00,76.8,71.6,30.00,North,-999,0.0,0.0,84,0.00,,,-99.99,WeatherLink 5.7,2013-08-12 10:16:00,
2013-08-12 06:31:00,76.7,71.5,30.00,North,-999,0.0,0.0,84,0.00,,,-99.99,WeatherLink 5.7,2013-08-12 10:31:00,
2013-08-12 06:45:00,76.6,71.7,30.00,North,-999,0.0,0.0,85,0.00,,,-99.99,WeatherLink 5.7,2013-08-12 10:45:00,
2013-08-12 07:01:00,76.5,71.7,30.01,North,-999,0.0,0.0,85,0.00,,,-99.99,WeatherLink 5.7,2013-08-12 11:01:00,
2013-08-12 07:16:00,76.5,72.3,30.01,North,-999,0.0,0.0,87,0.00,,,-99.99,WeatherLink 5.7,2013-08-12 11:16:00,
2013-08-12 07:31:00,76.7,72.5,30.01,North,-999,0.0,0.0,87,0.00,,,-99.99,WeatherLink 5.7,2013-08-12 11:31:00,
2013-08-12 07:46:00,76.7,72.5,30.01,North,-999,0.0,0.0,87,0.00,,,-99.99,WeatherLink 5.7,2013-08-12 11:46:00,
2013-08-12 08:01:00,77.0,72.8,30.01,North,-999,0.0,0.0,87,0.00,,,-99.99,WeatherLink 5.7,2013-08-12 12:01:00,
2013-08-12 08:16:00,77.6,73.8,30.02,North,-999,0.0,0.0,88,0.00,,,-99.99,WeatherLink 5.7,2013-08-12 12:16:00,
2013-08-12 08:31:00,78.5,74.6,30.02,North,-999,0.0,0.0,88,0.00,,,-99.99,WeatherLink 5.7,2013-08-12 12:31:00,
2013-08-12 08:46:00,79.6,75.7,30.02,North,-999,0.0,0.0,88,0.00,,,-99.99,WeatherLink 5.7,2013-08-12 12:46:00,
2013-08-12 09:01:00,80.4,76.5,30.02,North,-999,0.0,0.0,88,0.00,,,-99.99,WeatherLink 5.7,2013-08-12 13:01:00,
2013-08-12 09:16:00,81.6,76.6,30.02,North,-999,0.0,0.0,85,0.00,,,-99.99,WeatherLink 5.7,2013-08-12 13:16:00,
2013-08-12 09:31:00,83.0,77.7,30.02,North,-999,0.0,0.0,84,0.00,,,-99.99,WeatherLink 5.7,2013-08-12 13:31:00,
2013-08-12 09:46:00,84.3,77.8,30.02,North,-999,0.0,0.0,81,0.00,,,-99.99,WeatherLink 5.7,2013-08-12 13:46:00,
2013-08-12 10:01:00,85.5,78.2,30.02,North,-999,0.0,0.0,79,0.00,,,-99.99,WeatherLink 5.7,2013-08-12 14:01:00,
2013-08-12 10:16:00,86.4,77.9,30.02,North,-999,0.0,0.0,76,0.00,,,-99.99,WeatherLink 5.7,2013-08-12 14:16:00,
2013-08-12 10:31:00,87.3,78.4,30.02,North,0,0.0,1.0,75,0.00,,,-99.99,WeatherLink 5.7,2013-08-12 14:31:00,
2013-08-12 10:46:00,87.7,78.4,30.02,North,-999,0.0,1.0,74,0.00,,,-99.99,WeatherLink 5.7,2013-08-12 14:46:00,
2013-08-12 11:01:00,88.5,77.5,30.02,North,0,0.0,4.0,70,0.00,,,-99.99,WeatherLink 5.7,2013-08-12 15:01:00,
2013-08-12 11:16:00,89.0,77.9,30.01,North,-999,0.0,0.0,70,0.00,,,-99.99,WeatherLink 5.7,2013-08-12 15:16:00,
2013-08-12 11:31:00,89.0,77.1,30.01,North,-999,0.0,0.0,68,0.00,,,-99.99,WeatherLink 5.7,2013-08-12 15:31:00,
2013-08-12 11:46:00,88.7,76.8,30.01,North,-999,0.0,0.0,68,0.00,,,-99.99,WeatherLink 5.7,2013-08-12 15:46:00,
2013-08-12 12:01:00,89.3,75.5,30.00,North,0,0.0,7.0,64,0.00,,,-99.99,WeatherLink 5.7,2013-08-12 16:01:00,
2013-08-12 12:16:00,90.7,75.9,30.00,North,0,0.0,2.0,62,0.00,,,-99.99,WeatherLink 5.7,2013-08-12 16:16:00,
2013-08-12 12:31:00,92.1,76.7,30.00,North,0,0.0,6.0,61,0.00,,,-99.99,WeatherLink 5.7,2013-08-12 16:31:00,
2013-08-12 12:46:00,92.7,75.8,30.00,North,0,0.0,1.0,58,0.00,,,-99.99,WeatherLink 5.7,2013-08-12 16:46:00,
2013-08-12 13:01:00,92.9,75.9,29.99,North,0,0.0,3.0,58,0.00,,,-99.99,WeatherLink 5.7,2013-08-12 17:01:00,
2013-08-12 13:16:00,92.7,74.7,29.99,North,0,0.0,9.0,56,0.00,,,-99.99,WeatherLink 5.7,2013-08-12 17:16:00,
2013-08-12 13:31:00,92.2,74.2,29.99,North,-999,0.0,0.0,56,0.00,,,-99.99,WeatherLink 5.7,2013-08-12 17:31:00,
2013-08-12 13:46:00,92.3,74.9,29.99,North,0,0.0,6.0,57,0.00,,,-99.99,WeatherLink 5.7,2013-08-12 17:46:00,
2013-08-12 14:01:00,92.5,73.4,29.98,North,0,0.0,1.0,54,0.00,,,-99.99,WeatherLink 5.7,2013-08-12 18:01:00,
2013-08-12 14:16:00,92.7,74.2,29.98,North,0,0.0,2.0,55,0.00,,,-99.99,WeatherLink 5.7,2013-08-12 18:16:00,
2013-08-12 14:31:00,92.6,73.0,29.97,North,0,0.0,1.0,53,0.00,,,-99.99,WeatherLink 5.7,2013-08-12 18:31:00,
2013-08-12 14:46:00,92.8,75.8,29.97,North,-999,0.0,0.0,58,0.00,,,-99.99,WeatherLink 5.7,2013-08-12 18:46:00,
2013-08-12 15:01:00,93.4,76.9,29.97,North,0,0.0,1.0,59,0.00,,,-99.99,WeatherLink 5.7,2013-08-12 19:01:00,
2013-08-12 15:16:00,92.7,76.8,29.96,North,-999,0.0,0.0,60,0.00,,,-99.99,WeatherLink 5.7,2013-08-12 19:16:00,
2013-08-12 15:31:00,92.4,77.0,29.95,North,0,0.0,5.0,61,0.00,,,-99.99,WeatherLink 5.7,2013-08-12 19:31:00,
2013-08-12 15:46:00,91.8,76.4,29.95,North,0,0.0,1.0,61,0.00,,,-99.99,WeatherLink 5.7,2013-08-12 19:46:00,
2013-08-12 16:01:00,90.6,75.8,29.95,North,0,0.0,7.0,62,0.00,,,-99.99,WeatherLink 5.7,2013-08-12 20:01:00,
2013-08-12 16:16:00,89.8,76.5,29.95,North,0,0.0,1.0,65,0.00,,,-99.99,WeatherLink 5.7,2013-08-12 20:16:00,
2013-08-12 16:31:00,90.2,77.3,29.94,North,-999,0.0,0.0,66,0.00,,,-99.99,WeatherLink 5.7,2013-08-12 20:31:00,
2013-08-12 16:46:00,91.3,77.9,29.94,North,0,0.0,4.0,65,0.00,,,-99.99,WeatherLink 5.7,2013-08-12 20:46:00,
2013-08-12 17:01:00,92.4,78.0,29.94,North,-999,0.0,0.0,63,0.00,,,-99.99,WeatherLink 5.7,2013-08-12 21:01:00,
2013-08-12 17:16:00,92.8,77.9,29.93,North,0,0.0,1.0,62,0.00,,,-99.99,WeatherLink 5.7,2013-08-12 21:16:00,
2013-08-12 17:31:00,92.7,78.3,29.94,North,0,0.0,6.0,63,0.02,,,-99.99,WeatherLink 5.7,2013-08-12 21:31:00,
2013-08-12 17:46:00,91.5,78.1,29.94,North,0,0.0,1.0,65,0.16,,,-99.99,WeatherLink 5.7,2013-08-12 21:46:00,
2013-08-12 18:01:00,89.1,77.2,29.94,North,0,0.0,5.0,68,0.25,,,-99.99,WeatherLink 5.7,2013-08-12 22:01:00,
2013-08-12 18:16:00,86.9,77.2,29.93,North,-999,0.0,0.0,73,0.26,,,-99.99,WeatherLink 5.7,2013-08-12 22:16:00,
2013-08-12 18:31:00,85.4,76.6,29.93,North,-999,0.0,0.0,75,0.24,,,-99.99,WeatherLink 5.7,2013-08-12 22:31:00,
2013-08-12 18:46:00,84.5,76.1,29.92,North,-999,0.0,0.0,76,0.10,,,-99.99,WeatherLink 5.7,2013-08-12 22:46:00,
2013-08-12 19:01:00,84.1,76.1,29.92,North,-999,0.0,0.0,77,0.02,,,-99.99,WeatherLink 5.7,2013-08-12 23:01:00,
2013-08-12 19:16:00,84.0,76.8,29.92,North,-999,0.0,0.0,79,0.01,,,-99.99,WeatherLink 5.7,2013-08-12 23:16:00,
2013-08-12 19:31:00,84.1,76.9,29.92,North,-999,0.0,0.0,79,0.01,,,-99.99,WeatherLink 5.7,2013-08-12 23:31:00,
2013-08-12 19:46:00,84.0,76.8,29.92,North,0,0.0,5.0,79,0.01,,,-99.99,WeatherLink 5.7,2013-08-12 23:46:00,
2013-08-12 20:01:00,83.8,76.6,29.92,North,-999,0.0,0.0,79,0.00,,,-99.99,WeatherLink 5.7,2013-08-13 00:01:00,
2013-08-12 20:16:00,83.4,76.2,29.93,North,-999,0.0,0.0,79,0.00,,,-99.99,WeatherLink 5.7,2013-08-13 00:16:00,
2013-08-12 20:31:00,83.1,76.3,29.94,North,-999,0.0,0.0,80,0.00,,,-99.99,WeatherLink 5.7,2013-08-13 00:31:00,
2013-08-12 20:46:00,82.9,76.5,29.94,North,-999,0.0,0.0,81,0.00,,,-99.99,WeatherLink 5.7,2013-08-13 00:46:00,
2013-08-12 21:01:00,82.8,76.4,29.94,North,-999,0.0,0.0,81,0.00,,,-99.99,WeatherLink 5.7,2013-08-13 01:01:00,
2013-08-12 21:16:00,82.6,76.5,29.94,North,-999,0.0,0.0,82,0.00,,,-99.99,WeatherLink 5.7,2013-08-13 01:16:00,
2013-08-12 21:31:00,82.5,76.4,29.95,North,-999,0.0,0.0,82,0.00,,,-99.99,WeatherLink 5.7,2013-08-13 01:31:00,
2013-08-12 21:46:00,82.3,76.3,29.95,North,-999,0.0,0.0,82,0.00,,,-99.99,WeatherLink 5.7,2013-08-13 01:46:00,
2013-08-12 22:01:00,81.9,75.9,29.96,North,-999,0.0,0.0,82,0.00,,,-99.99,WeatherLink 5.7,2013-08-13 02:01:00,
2013-08-12 22:16:00,81.5,75.5,29.97,North,-999,0.0,0.0,82,0.00,,,-99.99,WeatherLink 5.7,2013-08-13 02:16:00,
2013-08-12 22:31:00,81.3,75.3,29.97,North,-999,0.0,0.0,82,0.00,,,-99.99,WeatherLink 5.7,2013-08-13 02:31:00,
2013-08-12 22:46:00,81.2,75.5,29.98,North,-999,0.0,0.0,83,0.00,,,-99.99,WeatherLink 5.7,2013-08-13 02:46:00,
2013-08-12 23:01:00,81.0,75.3,29.97,North,-999,0.0,0.0,83,0.00,,,-99.99,WeatherLink 5.7,2013-08-13 03:01:00,
2013-08-12 23:16:00,80.8,75.2,29.97,North,-999,0.0,0.0,83,0.00,,,-99.99,WeatherLink 5.7,2013-08-13 03:16:00,
2013-08-12 23:30:00,80.4,74.8,29.96,North,-999,0.0,0.0,83,0.00,,,-99.99,WeatherLink 5.7,2013-08-13 03:30:00,
2013-08-12 23:46:00,80.1,74.8,29.97,North,-999,0.0,0.0,84,0.00,,,-99.99,WeatherLink 5.7,2013-08-13 03:46:00,